DW6794 Weather Reports


Display with metric or nautical units.
time (UTC)temp
F
wind
direction
speed
MPH
gust
MPH
rain 1hr
in
rain 24hr
in
rain mn
in
humidity
%
barometer
mb
20141220033338 31 132 0.0 0.0 0.00 0.00 0.00 71 1019.8
20141220032338 31 132 0.0 0.0 0.00 0.00 0.00 71 1020.0
20141220031339 32 132 0.0 0.0 0.00 0.00 0.00 71 1019.5
20141220030338 32 132 0.0 0.0 0.00 0.00 0.00 71 1019.7
20141220025339 32 132 0.0 0.0 0.00 0.00 0.00 71 1019.5
20141220024340 33 132 0.0 0.0 0.00 0.00 0.00 71 1019.5
20141220023339 33 132 0.0 0.0 0.00 0.00 0.00 71 1019.7
20141220022339 33 132 0.0 0.0 0.00 0.00 0.00 71 1019.8
20141220021339 33 132 0.0 0.0 0.00 0.00 0.00 70 1019.8
20141220020339 33 132 0.0 0.0 0.00 0.00 0.00 70 1019.9
20141220015339 33 132 0.0 0.0 0.00 0.00 0.00 70 1020.3
20141220014339 33 132 0.0 0.0 0.00 0.00 0.00 69 1020.5
20141220013339 34 132 0.0 0.0 0.00 0.00 0.00 69 1020.6
20141220012339 34 132 0.0 0.0 0.00 0.00 0.00 68 1020.8
20141220011340 34 132 0.0 0.0 0.00 0.00 0.00 68 1020.9
20141220010339 34 132 0.0 0.0 0.00 0.00 0.00 69 1020.6
20141220005340 33 132 0.0 0.0 0.00 0.00 0.00 68 1020.4
20141220004340 33 132 0.0 0.0 0.00 0.00 0.00 66 1020.6
20141220003340 34 132 0.0 0.0 0.00 0.00 0.00 66 1020.8
20141220002339 34 132 0.0 0.0 0.00 0.00 0.00 66 1020.5
20141220001339 34 132 0.0 0.0 0.00 0.00 0.00 65 1020.3
20141220000339 35 132 0.0 0.0 0.00 0.00 0.00 64 1020.3
20141219235339 35 132 0.0 0.0 0.00 0.00 0.00 63 1020.7
20141219234339 36 132 0.0 0.0 0.00 0.00 0.00 62 1020.1
20141219233340 37 132 0.0 0.0 0.00 0.00 0.00 62 1019.7
20141219232339 37 132 0.0 0.0 0.00 0.00 0.00 61 1019.8
20141219231339 38 132 0.0 0.0 0.00 0.00 0.00 61 1019.8
20141219230340 39 132 0.0 0.0 0.00 0.00 0.00 59 1019.8
20141219225340 40 132 0.0 0.0 0.00 0.00 0.00 59 1019.6
20141219224340 41 132 0.0 0.0 0.00 0.00 0.00 58 1019.6
20141219223339 41 132 0.0 0.0 0.00 0.00 0.00 58 1019.7
20141219222340 42 132 0.0 0.0 0.00 0.00 0.00 58 1019.6
20141219221339 43 132 0.0 0.0 0.00 0.00 0.00 57 1019.4
20141219220339 44 132 0.0 0.0 0.00 0.00 0.00 56 1019.4
20141219215339 45 132 0.0 0.0 0.00 0.00 0.00 55 1019.5
20141219214339 45 132 0.0 0.0 0.00 0.00 0.00 55 1019.4
20141219213341 45 132 0.0 0.0 0.00 0.00 0.00 55 1019.2
20141219212340 46 132 0.0 0.0 0.00 0.00 0.00 54 1019.0
20141219211340 46 132 0.0 0.0 0.00 0.00 0.00 54 1019.1
20141219210339 46 132 0.0 0.0 0.00 0.00 0.00 54 1019.1
20141219205339 46 132 0.0 0.0 0.00 0.00 0.00 54 1019.0
20141219204340 46 132 0.0 0.0 0.00 0.00 0.00 54 1018.6
20141219203340 46 132 0.0 0.0 0.00 0.00 0.00 54 1018.6
20141219202339 46 133 0.0 0.0 0.00 0.00 0.00 54 1018.8
20141219201340 46 133 0.0 0.0 0.00 0.00 0.00 54 1019.1
20141219200339 46 133 0.0 0.0 0.00 0.00 0.00 53 1018.8
20141219195340 46 133 0.0 0.0 0.00 0.00 0.00 54 1018.7
20141219194341 46 133 0.0 0.0 0.00 0.00 0.00 54 1018.7
20141219193340 46 133 0.0 0.0 0.00 0.00 0.00 55 1018.8
20141219192340 46 135 0.0 0.0 0.00 0.00 0.00 55 1018.9
20141219191340 46 167 0.0 0.0 0.00 0.00 0.00 56 1019.0
20141219190340 46 167 0.0 0.0 0.00 0.00 0.00 56 1019.1
20141219185340 46 167 0.0 0.0 0.00 0.00 0.00 56 1019.2
20141219184340 45 167 0.0 0.0 0.00 0.00 0.00 57 1019.5
20141219183340 45 167 0.0 0.0 0.00 0.00 0.00 58 1019.6
20141219182340 45 167 0.0 0.0 0.00 0.00 0.00 57 1019.7
20141219181341 45 167 0.0 0.0 0.00 0.00 0.00 56 1019.7
20141219180340 45 167 0.0 0.0 0.00 0.00 0.00 57 1019.6
20141219175340 45 167 0.0 0.0 0.00 0.00 0.00 58 1019.7
20141219174341 45 167 0.0 0.0 0.00 0.00 0.00 58 1019.8
20141219173341 45 167 0.0 0.0 0.00 0.00 0.00 59 1019.9
20141219172341 45 162 0.0 0.0 0.00 0.00 0.00 60 1020.1
20141219171341 44 109 0.0 0.0 0.00 0.00 0.00 60 1020.0
20141219170340 44 110 0.0 0.0 0.00 0.00 0.00 61 1020.1
20141219165341 44 108 0.0 0.0 0.00 0.00 0.00 62 1020.2
20141219164340 44 67 0.0 0.0 0.00 0.00 0.00 62 1020.2
20141219163340 44 67 0.0 0.0 0.00 0.00 0.00 62 1020.3
20141219162340 43 67 0.0 0.0 0.00 0.00 0.00 62 1020.4
20141219161340 43 67 0.0 0.0 0.00 0.00 0.00 62 1020.6
20141219154340 42 67 0.0 0.0 0.00 0.00 0.00 66 1020.8
20141219153340 41 67 0.0 0.0 0.00 0.00 0.00 67 1020.8
20141219152340 41 67 0.0 0.0 0.00 0.00 0.00 67 1020.9
20141219151341 40 67 0.0 0.0 0.00 0.00 0.00 68 1021.1
20141219150341 40 67 0.0 0.0 0.00 0.00 0.00 69 1021.1
20141219145341 39 67 0.0 0.0 0.00 0.00 0.00 69 1020.9
20141219144341 39 67 0.0 0.0 0.00 0.00 0.00 70 1020.9
20141219143341 39 67 0.0 0.0 0.00 0.00 0.00 71 1020.8
20141219142341 39 67 0.0 0.0 0.00 0.00 0.00 72 1020.7
20141219141341 39 67 0.0 0.0 0.00 0.00 0.00 73 1020.7
20141219140341 38 67 0.0 0.0 0.00 0.00 0.00 73 1020.6
20141219135342 38 67 0.0 0.0 0.00 0.00 0.00 73 1020.6
20141219134341 38 67 0.0 0.0 0.00 0.00 0.00 73 1020.8
20141219133341 38 67 0.0 0.0 0.00 0.00 0.00 73 1020.9
20141219132342 38 67 0.0 0.0 0.00 0.00 0.00 73 1020.8
20141219131342 38 67 0.0 0.0 0.00 0.00 0.00 73 1020.5
20141219130341 38 67 0.0 0.0 0.00 0.00 0.00 73 1020.5
20141219125341 38 67 0.0 0.0 0.00 0.00 0.00 73 1020.6
20141219124341 38 67 0.0 0.0 0.00 0.00 0.00 73 1020.9
20141219123341 38 67 0.0 0.0 0.00 0.00 0.00 73 1021.1
20141219122341 38 67 0.0 0.0 0.00 0.00 0.00 73 1020.7
20141219121342 38 67 0.0 0.0 0.00 0.00 0.00 73 1020.9
20141219120342 38 67 0.0 0.0 0.00 0.00 0.00 73 1020.8
20141219115342 38 68 0.0 0.0 0.00 0.00 0.00 73 1020.6
20141219114341 38 68 0.0 0.0 0.00 0.00 0.00 73 1020.3
20141219113342 38 68 0.0 0.0 0.00 0.00 0.00 73 1019.9
20141219112342 38 68 0.0 0.0 0.00 0.00 0.00 73 1019.9
20141219111342 38 68 0.0 0.0 0.00 0.00 0.00 74 1019.7
20141219110342 38 68 0.0 0.0 0.00 0.00 0.00 74 1019.6
20141219105342 38 67 0.0 0.0 0.00 0.00 0.00 75 1019.9
20141219104342 39 67 0.0 0.0 0.00 0.00 0.00 75 1019.8
20141219103342 39 67 0.0 0.0 0.00 0.00 0.00 76 1019.9
20141219102342 39 67 0.0 0.0 0.00 0.00 0.00 76 1019.9
20141219101342 39 67 0.0 0.0 0.00 0.00 0.00 76 1019.9
20141219100342 39 67 0.0 0.0 0.00 0.00 0.00 76 1019.8
20141219095343 39 67 0.0 0.0 0.00 0.00 0.00 76 1019.7
20141219094341 39 67 0.0 0.0 0.00 0.00 0.00 76 1019.6
20141219093342 39 67 0.0 0.0 0.00 0.00 0.00 75 1019.6
20141219092342 39 67 0.0 0.0 0.00 0.00 0.00 75 1019.7
20141219091342 39 67 0.0 0.0 0.00 0.00 0.00 75 1019.6
20141219090343 39 67 0.0 0.0 0.00 0.00 0.00 75 1019.6
20141219085343 39 67 0.0 0.0 0.00 0.00 0.00 75 1019.8
20141219084341 39 67 0.0 0.0 0.00 0.00 0.00 74 1019.5
20141219083342 40 67 0.0 0.0 0.00 0.00 0.00 74 1019.5
20141219082342 40 67 0.0 0.0 0.00 0.00 0.00 74 1019.7
20141219081342 40 67 0.0 0.0 0.00 0.00 0.00 74 1019.9
20141219080342 40 67 0.0 0.0 0.00 0.00 0.00 74 1020.0
20141219075342 40 67 0.0 0.0 0.00 0.00 0.00 74 1019.9
20141219074342 40 67 0.0 0.0 0.00 0.00 0.00 74 1019.8
20141219073342 40 67 0.0 0.0 0.00 0.00 0.00 74 1019.6
20141219072343 40 67 0.0 0.0 0.00 0.00 0.00 74 1019.6
20141219071343 40 67 0.0 0.0 0.00 0.00 0.00 74 1019.6
20141219070342 40 67 0.0 0.0 0.00 0.00 0.00 74 1019.6
20141219065342 40 66 0.0 0.0 0.00 0.00 0.00 74 1019.6
20141219064344 40 66 0.0 0.0 0.00 0.00 0.00 74 1019.6
20141219063343 40 67 0.0 0.0 0.00 0.00 0.00 74 1019.6
20141219062343 40 66 0.0 0.0 0.00 0.00 0.00 74 1019.6
20141219061343 40 66 0.0 0.0 0.00 0.00 0.00 74 1019.5
20141219060343 40 66 0.0 0.0 0.00 0.00 0.00 74 1019.5
20141219055343 40 66 0.0 0.0 0.00 0.00 0.00 74 1019.7
20141219054342 40 66 0.0 0.0 0.00 0.00 0.00 74 1020.1
20141219053342 40 66 0.0 0.0 0.00 0.00 0.00 74 1019.9
20141219052343 40 66 0.0 0.0 0.00 0.00 0.00 74 1020.1
20141219051343 40 66 0.0 0.0 0.00 0.00 0.00 74 1020.2
20141219050343 40 66 0.0 0.0 0.00 0.00 0.00 74 1020.2
20141219045344 41 66 0.0 0.0 0.00 0.00 0.00 74 1020.2
20141219044343 41 67 0.0 0.0 0.00 0.00 0.00 74 1020.2
20141219043342 40 67 0.0 0.0 0.00 0.00 0.00 74 1020.2
20141219042343 40 67 0.0 0.0 0.00 0.00 0.00 74 1020.2
20141219041343 40 65 0.0 0.0 0.00 0.00 0.00 74 1020.2
20141219040343 40 65 0.0 0.0 0.00 0.00 0.00 74 1020.2
20141219035342 40 65 0.0 0.0 0.00 0.00 0.00 74 1020.0
20141219034343 40 65 0.0 0.0 0.00 0.00 0.00 74 1019.9